sat.trackr.live / text

‹ back to catalog

STARLINK-1704

NORAD 47625 · 2021-012F

PAYLOAD ACTIVE UNKNOWN

§ Identity

Operator
Country
US
Launch date
2021-02-16
Launch site
AFETR
Launch vehicle
Mass (kg)
RCS (m²)

Purposes: comms

External: N2YO · Heavens-Above · Gunter

§ Orbital elements

Epoch: 2026-09-20T04:00:03.000096Z

Period
90.76 min
Inclination
53.0370°
Eccentricity
0.0006839
Mean motion
15.86619895 rev/d
Perigee alt
307.2 km
Apogee alt
316.3 km
Semi-major
6,689.9 km
B*
8.1452e-4
RAAN
191.4178°
Arg perigee
112.2646°
Mean anomaly
258.8946°
Rev number
604

§ Raw data

STARLINK-17041 47625U 21012F   26263.16670139  .00216028  00000+0  81452-3 0  99932 47625  53.0370 191.4178 0006839 112.2646 258.8946 15.86619895  6043

JSON: /api/v1/satellites/47625 · /tle

For live sub-satellite position, see the globe view (requires WebGL).

§ Visibility from observer

Set your observer location to see the next 7 days of passes ≥ 10°. The values pass through the URL so the page stays shareable.

No JS? Fill the form by hand. The geolocation button needs JavaScript.